Weather History for El Dorado, AR

Change the Weather History Date:

Saturday, September 1, 2012

  Actual Average Record
Temperature  
Mean Temperature 84 °F 79 °F  
Max Temperature 92 °F 91 °F 108 °F (2000)
Min Temperature 75 °F 68 °F 51 °F (1915)
Degree Days  
Heating Degree Days 0 0  
Month to date heating degree days 0 0  
Since 1 July heating degree days 0 0  
Cooling Degree Days 19 14  
Month to date cooling degree days 19 14  
Year to date cooling degree days 1943 1741  
Growing Degree Days 33 (Base 50)    
Moisture  
Dew Point 74 °F    
Average Humidity 75    
Maximum Humidity 94    
Minimum Humidity 56    
Precipitation  
Precipitation 0.00 in 0.10 in 1.60 in (1944)
Month to date precipitation 0.00 0.10  
Year to date precipitation 26.69 34.65  
Snow  
Snow 0.00 in - - ()
Month to date snowfall 0.0  
Since 1 July snowfall 0.0  
Since 1 September snowfall 0.0  
Snow Depth 0.00 in    
Sea Level Pressure  
Sea Level Pressure 30.00 in    
Wind  
Wind Speed 10 mph (SSW)    
Max Wind Speed 17 mph    
Max Gust Speed 31 mph    
Visibility 10 miles    
Events      
T = Trace of Precipitation, MM = Missing Value Source: NWS Daily Summary

Daily Weather History Graph

Daily Weather History Graph

Search for Another Location

Airport:

Trip Planner

Search our weather history database for the weather conditions in past years. The results will help you decide how hot, cold, wet, or windy it might be!

Date:

Astronomy

Sep. 01, 2012 Rise Set
Actual Time 6:45 AM CDT 7:35 PM CDT
Civil Twilight 6:20 AM CDT 8:00 PM CDT
Nautical Twilight 5:50 AM CDT 8:30 PM CDT
Astronomical Twilight 5:20 AM CDT 9:01 PM CDT
Moon 8:01 PM CDT (9/1) 7:47 AM CDT (9/1)
Length of Visible Light 13h 40m
Length of Day
12h 49m
Full, 99% of the Moon is Illuminated
Sep 1
Full
Sep 8
Last Quarter
Sep 15
New
Sep 22
First Quarter
Sep 29
Full

Hourly Weather History & Observations

Time (CDT) Temp. Heat Index Dew Point Humidity Pressure Visibility Wind Dir Wind Speed Gust Speed Precip Events Conditions
12:53 AM 75.0 °F - 73.0 °F 94% 29.98 in 10.0 mi South 5.8 mph - N/A   Clear
1:53 AM 75.9 °F - 73.9 °F 94% 29.99 in 10.0 mi South 8.1 mph - N/A   Clear
2:53 AM 77.0 °F - 73.9 °F 90% 29.99 in 10.0 mi South 9.2 mph - N/A   Clear
3:53 AM 77.0 °F - 73.9 °F 90% 30.00 in 10.0 mi South 9.2 mph - N/A   Partly Cloudy
4:51 AM 77.0 °F - 75.2 °F 94% 30.01 in 10.0 mi South 9.2 mph - N/A   Mostly Cloudy
4:53 AM 77.0 °F - 75.0 °F 94% 30.01 in 10.0 mi South 6.9 mph - N/A   Mostly Cloudy
5:53 AM 77.0 °F - 73.9 °F 90% 30.01 in 10.0 mi South 9.2 mph - N/A   Mostly Cloudy
6:53 AM 77.0 °F - 75.0 °F 94% 30.03 in 10.0 mi South 8.1 mph - N/A   Overcast
7:53 AM 77.0 °F - 75.0 °F 94% 30.05 in 9.0 mi South 6.9 mph - N/A   Overcast
8:53 AM 79.0 °F - 75.0 °F 88% 30.06 in 10.0 mi SSW 10.4 mph - N/A   Mostly Cloudy
9:53 AM 82.0 °F 88.6 °F 75.0 °F 79% 30.07 in 10.0 mi SSW 13.8 mph 19.6 mph N/A   Mostly Cloudy
10:53 AM 84.9 °F 93.3 °F 75.0 °F 72% 30.06 in 10.0 mi SSW 13.8 mph 21.9 mph N/A   Mostly Cloudy
11:53 AM 87.1 °F 96.3 °F 75.0 °F 67% 30.06 in 10.0 mi SW 10.4 mph 17.3 mph N/A   Mostly Cloudy
12:53 PM 88.0 °F 97.5 °F 75.0 °F 65% 30.04 in 10.0 mi SSW 12.7 mph 19.6 mph N/A   Mostly Cloudy
1:53 PM 89.1 °F 98.0 °F 73.9 °F 61% 30.02 in 10.0 mi SSW 10.4 mph - N/A   Mostly Cloudy
2:53 PM 91.0 °F 100.4 °F 73.9 °F 57% 29.99 in 10.0 mi SW 15.0 mph 19.6 mph N/A   Scattered Clouds
3:53 PM 91.9 °F 100.7 °F 73.0 °F 54% 29.96 in 10.0 mi South 12.7 mph 20.7 mph N/A   Scattered Clouds
4:53 PM 91.0 °F 100.4 °F 73.9 °F 57% 29.95 in 10.0 mi South 13.8 mph 19.6 mph N/A   Partly Cloudy
5:53 PM 90.0 °F 97.9 °F 73.0 °F 57% 29.95 in 10.0 mi SSW 11.5 mph - N/A   Clear
6:53 PM 88.0 °F 96.5 °F 73.9 °F 63% 29.95 in 10.0 mi South 10.4 mph - N/A   Clear
7:53 PM 84.9 °F 91.4 °F 73.0 °F 67% 29.96 in 10.0 mi South 8.1 mph - N/A   Clear
8:53 PM 82.9 °F 90.2 °F 75.0 °F 77% 29.96 in 10.0 mi South 11.5 mph - N/A   Clear
9:53 PM 82.0 °F 88.6 °F 75.0 °F 79% 29.98 in 10.0 mi South 10.4 mph - N/A   Clear
10:53 PM 81.0 °F 86.2 °F 73.9 °F 79% 29.99 in 10.0 mi South 6.9 mph - N/A   Clear
11:53 PM 80.1 °F 84.5 °F 73.9 °F 81% 29.98 in 10.0 mi SSW 9.2 mph - N/A   Clear